Regional Weather Roundup
Issued by NWS Upton, NY

Current Version | Previous Version | Text Only | Print | Product List | Glossary On
Versions: 1 2 3 4 5 6 7 8 9 10 11 12 13 14 15 16 17 18 19 20 21 22 23 24 25 26 27 28 29 30 31 32 33 34 35 36 37 38 39 40 41 42 43 44 45 46 47 48 49 50
000 ASUS41 KOKX 240605 RWROKX REGIONAL WEATHER ROUNDUP NATIONAL WEATHER SERVICE NEW YORK NY 200 AM EDT SUN JUL 24 2016 NOTE: "FAIR" INDICATES FEW OR NO CLOUDS BELOW 12,000 FEET WITH NO SIGNIFICANT WEATHER AND/OR OBSTRUCTIONS TO VISIBILITY. NYZ071-072-176-178-NJZ106-104-240700- NEW YORK CITY METRO AREA CITY SKY/WX TMP DP RH WIND PRES REMARKS Central Park PTCLDY 79 59 50 NE3 29.95R LaGuardia APRT PTCLDY 80 62 54 NE7 29.92R Kennedy INTL PTCLDY 81 56 42 N8 29.93R Newark/Liberty PTCLDY 82 56 40 N8 29.92R BRNX BOT. GARD N/A 75 57 53 NE2 29.94S Wall St Helipt PTCLDY 82 59 44 CALM 29.93R Teterboro CLEAR 79 56 45 CALM 29.92R $$ NYZ177-179-078>081-240700- LONG ISLAND NEW YORK CITY SKY/WX TMP DP RH WIND PRES REMARKS FARMINGDALE PTCLDY 76 60 57 N6 29.93R ISLIP CLEAR 75 59 57 N6 29.92R SHIRLEY PTCLDY 70 60 70 CALM 29.93R RIVERHEAD NOT AVBL WESTHAMPTON PTCLDY 66 59 78 SW3 29.94R SOUTHAMPTON N/A 72 63 73 NE2 29.88R BRIDGEHAMPTON N/A 72 64 78 CALM 29.90S EAST HAMPTON FAIR 71 59 65 N3 29.90S MONTAUK POINT N/A 72 61 68 CALM 29.93R $$ NYZ052-065-067-240700- HUDSON VALLEY CITY SKY/WX TMP DP RH WIND PRES REMARKS WHITE PLAINS PTCLDY 74 57 55 N8 29.93R NEWBURGH NOT AVBL MONTGOMERY CLEAR 65 61 87 N3 29.96R POUGHKEEPSIE CLEAR 67 61 81 CALM 29.95R ALBANY PTCLDY 64 61 90 CALM 29.96R $$ NJZ001-105-106-008-010-013-015-019>022-104-240700- NEW JERSEY CITY SKY/WX TMP DP RH WIND PRES REMARKS NEWARK/LIBERTY PTCLDY 82 56 40 N8 29.92R TETERBORO CLEAR 79 56 45 CALM 29.92R CALDWELL CLEAR 72 60 66 CALM 29.94R MORRISTOWN CLEAR 63 59 88 CALM 29.94S SOMERVILLE CLEAR 68 64 87 CALM 29.92R SUSSEX CLEAR 63 60 90 CALM 29.96R ANDOVER N/A 65 60 84 CALM 29.97R TRENTON CLEAR 76 63 64 N5 29.93R MILLVILLE CLEAR 74 71 91 CALM 29.93R ATLANTIC CITY CLEAR 72 69 90 N5 29.93R WRIGHTSTOWN CLEAR 71 69 96 SW2 29.91R TOMS RIVER PTCLDY 69 68 96 SW3 29.94R BELMAR PTCLDY 75 68 78 NW6 29.94R $$ PAZ047>061-062-071-240700- EASTERN PENNSYLVANIA CITY SKY/WX TMP DP RH WIND PRES REMARKS PHILADELPHIA PTCLDY 77 68 73 N5 29.93S ALLENTOWN CLEAR 69 59 70 NW3 29.96R SCRANTON CLEAR 71 58 63 E7 29.99R $$ CTZ002-004>006-009-010-012-RIZ004-006-007-MAZ004-011-015-240700- SOUTHERN NEW ENGLAND IN CT CITY SKY/WX TMP DP RH WIND PRES REMARKS BRADLEY INTL CLEAR 67 60 78 CALM 29.92R HARTFORD CLEAR 73 62 68 CALM 29.92R DANBURY CLEAR 68 59 73 CALM 29.96R WTRBRY/OXFORD N/A 68 55 64 N7 29.96R BRIDGEPORT PTCLDY 77 57 50 CALM 29.92R MERIDEN CLEAR 69 60 73 CALM 29.92S NEW HAVEN PTCLDY 75 58 55 N6 29.92R CHESTER FAIR 73 59 60 N5 29.93R GROTON CLEAR 74 58 57 N3 29.90R WILLIMANTIC NOT AVBL IN RI CITY SKY/WX TMP DP RH WIND PRES REMARKS PROVIDENCE CLEAR 73 57 57 N7 29.90R BLOCK ISLAND CLEAR 70 62 76 W6 29.91R WESTERLY CLEAR 72 56 57 CALM 29.91R IN MA CITY SKY/WX TMP DP RH WIND PRES REMARKS BOSTON PTCLDY 71 58 63 NW12 29.88R WORCESTER CLEAR 66 56 70 NW10 29.94R WESTFIELD CLEAR 64 60 87 CALM 29.93R PROVINCETOWN CLEAR 67 63 87 N10 29.86 NANTUCKET CLOUDY 67 61 81 W5 29.87R $$ ANZ330-335-338-340-345-350-353-355-240700- COASTAL MARINE OBSERVATIONS STATION/POSITION TIME SKY/WX TEMP WIND PRES VSBY WAVE AIR SEA DIR/SP/G HT/PER (UTC) (F) (DEG/KT/KT) (MB) (MI) (FT/S) NY HARB ENTRANCE 0450 79 73 300/ 6/ 6 1012.4 3/ 7 20S FIRE ISLAND 0450 78 74 330/ 8/ 10 1011.9 3/ 6 GREAT SOUTH BAY 0500 79 80 340/ 2/ 4 N/A 23 SSW MONTAUK P 0450 73 71 20/ 6/ 6 1012.7 4/ 7 15 E BARNEGAT LI 0522 75 N/A 3/ 6 HUDSON CANYON 0450 78 77 1011.8 4/ 6 KINGS POINT 0500 79 73 1012.9 EXECUTION ROCKS 0500 78 40/ 4/ 4 N/A CENTRAL LI SOUND 0530 77 73 10/ 4/ 8 N/A 1 EASTERN LI SOUND 0500 74 68 320/ 6/ 12 N/A ROBBINS REEF 0512 85 340/ 6/ 7 1012.3 $$ >>>>>>>>>>>>>>>>>>>>>>>>>>>> KEY <<<<<<<<<<<<<<<<<<<<<<<<<<< > < > SKY/WX - SKY CONDITION/PRESENT WEATHER < > TMP - TEMPERATURE IN FAHRENHEIT < > DP - DEWPOINT IN FAHRENHEIT < > RH - RELATIVE HUMIDITY IN PERCENT < > WIND - DIRECTION AND SPEED IN MPH < > PRES - MEAN SEA LEVEL PRESSURE IN INCHES OF HG < > WCI - WIND CHILL INDEX < > VSB - VISIBILITY IN MILES < > HX - HEAT INDEX < > TC - TEMPERATURE IN CELSIUS < > VRB - VARIABLE WIND DIRECTION < > < >>>>>>>>>>>>>>>>>>>>>>>>>>>> KEY <<<<<<<<<<<<<<<<<<<<<<<<<<<

USA.gov is the U.S. government's official web portal to all federal, state and local government web resources and services.